Location: Unspecified
(0.0000°N, 0.0000°E)
Time: 13:45:51
(UTC+00:00)

Transit 2A - All Passes

Search period start: 21 February 2019 00:00
Search period end: 03 March 2019 00:00
Orbit: 592 x 967 km, 66.7° (Epoch: 20 February)

Date Brightness Start Highest point End Pass type
(mag) Time Alt. Az. Time Alt. Az. Time Alt. Az.
21 Feb - 04:19:27 10° SW 04:23:51 49° WNW 04:28:38 10° N visible
21 Feb - 15:11:06 10° N 15:16:37 34° ENE 15:21:45 10° SE daylight
21 Feb - 16:55:21 10° WNW 16:59:31 19° WSW 17:03:28 10° SSW daylight
22 Feb - 03:45:16 10° SSW 03:49:47 90° NW 03:54:45 10° NNE visible
22 Feb - 14:37:57 10° NNE 14:42:29 21° ENE 14:46:47 10° ESE daylight
22 Feb - 16:20:13 10° NW 16:25:30 31° WSW 16:30:27 10° S daylight
23 Feb - 03:11:24 10° S 03:15:46 49° ESE 03:20:32 10° NE night (unlit)
23 Feb - 14:05:43 10° NE 14:08:19 13° ENE 14:10:52 10° E daylight
23 Feb - 15:45:36 10° NW 15:51:30 51° WSW 15:56:57 10° S daylight
24 Feb - 02:37:55 10° SSE 02:41:47 27° ESE 02:45:54 10° NE night (unlit)
24 Feb - 04:22:14 10° W 04:24:44 14° WNW 04:27:23 10° NW night (unlit)
24 Feb - 15:11:20 10° NNW 15:17:29 83° WSW 15:23:06 10° SSE daylight
25 Feb - 02:05:04 10° SE 02:07:47 16° ESE 02:10:37 10° ENE night (unlit)
25 Feb - 03:46:49 10° WSW 03:50:36 25° WNW 03:54:41 10° NNW night (unlit)
25 Feb - 14:37:21 10° N 14:43:25 61° ENE 14:48:59 10° SSE daylight
26 Feb - 03:12:08 10° SW 03:16:30 43° WNW 03:21:16 10° N night (unlit)
26 Feb - 14:03:42 10° N 14:09:20 38° ENE 14:14:32 10° SE daylight
26 Feb - 15:48:28 10° WNW 15:52:12 17° WSW 15:55:45 10° SSW daylight
27 Feb - 02:37:52 10° SSW 02:42:25 80° WNW 02:47:28 10° NNE night (unlit)
27 Feb - 13:30:27 10° NNE 13:35:12 23° ENE 13:39:41 10° ESE daylight
27 Feb - 15:13:10 10° NW 15:18:12 28° WSW 15:22:54 10° SSW daylight
28 Feb - 02:03:55 10° S 02:08:24 57° ESE 02:13:19 10° NNE night (unlit)
28 Feb - 12:57:56 10° NE 13:01:02 14° ENE 13:04:03 10° E daylight
28 Feb - 14:38:27 10° NW 14:44:12 45° WSW 14:49:29 10° S daylight
01 Mar - 01:30:21 10° S 01:34:24 31° ESE 01:38:47 10° NE night (unlit)
01 Mar - 03:15:17 10° W 03:17:25 13° WNW 03:19:38 10° NW night (unlit)
01 Mar - 14:04:06 10° NNW 14:10:11 75° WSW 14:15:43 10° SSE daylight
02 Mar - 00:57:17 10° SSE 01:00:25 18° ESE 01:03:42 10° ENE night (unlit)
02 Mar - 02:39:37 10° WSW 02:43:16 22° WNW 02:47:12 10° NNW night (unlit)
02 Mar - 13:30:04 10° NNW 13:36:08 68° ENE 13:41:39 10° SSE daylight
